KK7KRZ Weather Reports


Display with metric or nautical units.
time (UTC)temp
F
wind
direction
speed
MPH
gust
MPH
rain 1hr
in
rain 24hr
in
rain mn
in
humidity
%
barometer
mb
20260505152859 55 161 0.0 0.0 0.00 0.00 0.00 88 1015.9
20260505152355 54 154 0.0 0.0 0.00 0.00 0.00 87 1015.9
20260505151855 54 151 0.0 0.0 0.00 0.00 0.00 87 1015.9
20260505151352 54 115 1.0 1.0 0.00 0.00 0.00 88 1015.9
20260505150849 55 143 2.0 2.0 0.00 0.00 0.00 89 1016.1
20260505150347 54 160 0.0 0.0 0.00 0.00 0.00 90 1015.9
20260505140317 53 161 0.0 0.0 0.00 0.00 0.00 92 1015.4
20260505130240 53 153 1.0 1.0 0.00 0.00 0.00 91 1015.2
20260505124731 53 165 0.0 0.0 0.00 0.00 0.00 91 1014.9
20260505124228 53 161 0.0 0.0 0.00 0.00 0.00 91 1014.9
20260505123723 53 161 0.0 0.0 0.00 0.00 0.00 90 1014.7
20260505123220 53 160 0.0 0.0 0.00 0.00 0.00 90 1015.1
20260505122716 53 157 0.0 0.0 0.00 0.00 0.00 90 1014.8
20260505122214 53 161 0.0 0.0 0.00 0.00 0.00 90 1014.9
20260505121710 53 150 2.0 2.0 0.00 0.00 0.00 90 1014.7
20260505121207 53 161 0.0 0.0 0.00 0.00 0.00 90 1014.7
20260505120703 53 160 0.0 0.0 0.00 0.00 0.00 90 1014.8
20260505120159 53 151 2.0 3.0 0.00 0.00 0.00 91 1014.8
20260505115652 53 167 0.0 0.0 0.00 0.00 0.00 91 1014.9
20260505115151 53 149 1.0 2.0 0.00 0.00 0.00 91 1014.9
20260505114648 53 158 0.0 0.0 0.00 0.00 0.00 91 1014.7
20260505114144 53 158 0.0 0.0 0.00 0.00 0.00 91 1014.9
20260505113640 53 173 1.0 1.0 0.00 0.00 0.00 91 1014.8
20260505113137 53 127 3.0 3.0 0.00 0.00 0.00 91 1014.7
20260505112633 53 139 0.0 0.0 0.00 0.00 0.00 91 1014.7
20260505112132 53 165 0.0 0.0 0.00 0.00 0.00 91 1014.6
20260505111631 53 147 0.0 1.0 0.00 0.00 0.00 91 1015.0
20260505111127 53 164 0.0 0.0 0.00 0.00 0.00 91 1014.5
20260505110623 53 153 4.0 5.0 0.00 0.00 0.00 90 1014.6
20260505110121 53 136 0.0 2.0 0.00 0.00 0.00 90 1014.5
20260505102057 53 152 1.0 1.0 0.00 0.00 0.00 90 1014.5
20260505101555 53 163 0.0 1.0 0.00 0.00 0.00 90 1014.4
20260505101051 53 154 1.0 2.0 0.00 0.00 0.00 90 1014.2
20260505100548 53 154 0.0 0.0 0.00 0.00 0.00 90 1014.2
20260505100044 53 153 1.0 1.0 0.00 0.00 0.00 90 1014.2
20260505095540 53 157 0.0 0.0 0.00 0.00 0.00 90 1014.3
20260505095037 53 159 0.0 0.0 0.00 0.00 0.00 90 1014.5
20260505094534 53 152 1.0 1.0 0.00 0.00 0.00 90 1014.4
20260505094030 53 157 0.0 0.0 0.00 0.00 0.00 90 1014.1
20260505093527 53 148 2.0 2.0 0.00 0.00 0.00 90 1014.3
20260505093024 53 146 1.0 1.0 0.00 0.00 0.00 90 1014.1
20260505092521 53 159 0.0 0.0 0.00 0.00 0.00 91 1014.1
20260505092020 53 151 0.0 1.0 0.00 0.00 0.00 91 1014.0
20260505091516 53 160 0.0 0.0 0.00 0.00 0.00 91 1014.0
20260505091014 53 168 0.0 0.0 0.00 0.00 0.00 90 1014.0
20260505090512 53 160 0.0 0.0 0.00 0.00 0.00 90 1014.3
20260505090009 53 158 0.0 0.0 0.00 0.00 0.00 91 1014.0
20260505085507 53 164 1.0 1.0 0.00 0.00 0.00 91 1014.0
20260505085005 53 158 0.0 0.0 0.00 0.00 0.00 91 1014.1
20260505084503 52 159 0.0 0.0 0.00 0.00 0.00 92 1014.0
20260505084001 52 157 0.0 0.0 0.00 0.00 0.00 92 1014.1
20260505083458 52 160 0.0 0.0 0.00 0.00 0.00 92 1014.1
20260505082954 52 159 0.0 0.0 0.00 0.00 0.00 92 1013.7
20260505082450 52 158 0.0 0.0 0.00 0.00 0.00 92 1013.8
20260505081947 52 159 0.0 0.0 0.00 0.00 0.00 92 1013.9
20260505081444 52 159 0.0 0.0 0.00 0.00 0.00 91 1013.7
20260505080940 52 139 1.0 2.0 0.00 0.00 0.00 91 1013.9
20260505080436 52 151 0.0 0.0 0.00 0.00 0.00 91 1013.8
20260505075932 52 160 0.0 0.0 0.00 0.00 0.00 91 1013.8
20260505075429 52 154 1.0 1.0 0.00 0.00 0.00 91 1013.8
20260505074927 52 151 0.0 1.0 0.00 0.00 0.00 92 1013.9
20260505074424 52 152 0.0 0.0 0.00 0.00 0.00 91 1013.8
20260505073921 52 158 0.0 0.0 0.00 0.00 0.00 91 1013.7
20260505073419 52 151 0.0 0.0 0.00 0.00 0.00 91 1013.8
20260505072916 52 158 0.0 0.0 0.00 0.00 0.00 91 1013.6
20260505072411 52 157 0.0 0.0 0.00 0.00 0.00 90 1013.7
20260505071908 52 159 0.0 0.0 0.00 0.00 0.00 90 1013.4
20260505071404 52 158 0.0 0.0 0.00 0.00 0.00 90 1013.6
20260505070902 53 157 0.0 0.0 0.00 0.00 0.00 90 1013.6
20260505070358 52 156 1.0 1.0 0.00 0.00 0.00 90 1013.3
20260505065854 52 158 0.0 0.0 0.00 0.00 0.00 90 1013.4
20260505065351 52 155 0.0 1.0 0.00 0.00 0.00 90 1013.4
20260505064848 53 158 0.0 0.0 0.00 0.00 0.00 89 1013.3
20260505064345 53 46 1.0 2.0 0.00 0.00 0.00 89 1013.4
20260505063843 53 151 0.0 0.0 0.00 0.00 0.00 89 1013.3
20260505063338 53 157 0.0 0.0 0.00 0.00 0.00 88 1013.3
20260505062835 53 159 0.0 0.0 0.00 0.00 0.00 88 1013.2
20260505062333 53 157 0.0 0.0 0.00 0.00 0.00 88 1013.4
20260505061830 53 151 0.0 0.0 0.00 0.00 0.00 88 1013.1
20260505061328 54 157 1.0 1.0 0.00 0.00 0.00 87 1013.2
20260505060825 54 161 0.0 0.0 0.00 0.00 0.00 87 1013.3
20260505060322 54 162 0.0 0.0 0.00 0.00 0.00 87 1013.3
20260505055818 54 149 1.0 2.0 0.00 0.00 0.00 87 1013.2
20260505055313 54 170 0.0 0.0 0.00 0.00 0.00 87 1013.2
20260505054812 54 168 0.0 0.0 0.00 0.00 0.00 87 1013.1
20260505054308 54 154 0.0 0.0 0.00 0.00 0.00 86 1013.2
20260505053807 54 167 0.0 0.0 0.00 0.00 0.00 86 1013.3
20260505053303 54 156 1.0 1.0 0.00 0.00 0.00 86 1012.9
20260505052800 54 124 1.0 2.0 0.00 0.00 0.00 86 1013.2
20260505052257 54 153 0.0 0.0 0.00 0.00 0.00 86 1013.2
20260505051754 54 159 0.0 0.0 0.00 0.00 0.00 86 1013.1
20260505051252 55 160 0.0 0.0 0.00 0.00 0.00 86 1013.0
20260505050750 55 155 0.0 0.0 0.00 0.00 0.00 85 1013.0
20260505050248 55 151 0.0 0.0 0.00 0.00 0.00 85 1012.9
20260505041718 57 161 0.0 0.0 0.00 0.00 0.00 83 1012.4
20260505041215 57 162 0.0 0.0 0.00 0.00 0.00 83 1011.9
20260505040712 57 167 0.0 0.0 0.00 0.00 0.00 83 1011.8
20260505040209 57 142 2.0 2.0 0.00 0.00 0.00 83 1012.1
20260505035706 58 158 0.0 0.0 0.00 0.00 0.00 83 1011.8
20260505035202 58 162 0.0 0.0 0.00 0.00 0.00 82 1012.1
20260505034658 58 163 0.0 0.0 0.00 0.00 0.00 82 1011.8
20260505034156 59 141 0.0 0.0 0.00 0.00 0.00 82 1011.9
20260505033652 59 165 0.0 0.0 0.00 0.00 0.00 81 1011.5
20260505033150 59 163 0.0 0.0 0.00 0.00 0.00 81 1011.5
20260505032648 60 161 0.0 0.0 0.00 0.00 0.00 80 1011.3
20260505032144 60 157 0.0 0.0 0.00 0.00 0.00 80 1011.4
20260505031642 60 149 0.0 1.0 0.00 0.00 0.00 79 1011.2
20260505031138 61 161 0.0 0.0 0.00 0.00 0.00 79 1011.5
20260505030635 61 177 0.0 1.0 0.00 0.00 0.00 79 1011.4
20260505030130 61 180 1.0 1.0 0.00 0.00 0.00 78 1011.0
20260505025627 62 161 0.0 0.0 0.00 0.00 0.00 78 1011.1
20260505025126 62 162 0.0 0.0 0.00 0.00 0.00 77 1011.1
20260505024622 62 161 0.0 0.0 0.00 0.00 0.00 76 1010.8
20260505024120 63 158 0.0 0.0 0.00 0.00 0.00 75 1010.9
20260505023617 63 166 0.0 0.0 0.00 0.00 0.00 75 1010.9
20260505023114 64 153 0.0 0.0 0.00 0.00 0.00 74 1010.6
20260505022612 64 160 0.0 0.0 0.00 0.00 0.00 73 1010.8
20260505022108 65 172 0.0 1.0 0.00 0.00 0.00 73 1010.7
20260505021605 65 148 0.0 0.0 0.00 0.00 0.00 71 1010.7
20260505021102 66 150 0.0 0.0 0.00 0.00 0.00 72 1010.3
20260505020602 67 163 0.0 0.0 0.00 0.00 0.00 71 1010.5
20260505020059 67 169 1.0 1.0 0.00 0.00 0.00 71 1010.6
20260505015556 67 165 0.0 0.0 0.00 0.00 0.00 71 1010.5
20260505015053 68 129 4.0 6.0 0.00 0.00 0.00 70 1010.5
20260505014549 68 157 0.0 0.0 0.00 0.00 0.00 71 1010.5
20260505014047 68 173 1.0 1.0 0.00 0.00 0.00 70 1010.5
20260505013544 69 148 1.0 2.0 0.00 0.00 0.00 69 1010.5
20260505013041 69 136 2.0 3.0 0.00 0.00 0.00 70 1010.5
20260505012539 69 161 0.0 0.0 0.00 0.00 0.00 70 1010.3
20260505012036 69 164 0.0 0.0 0.00 0.00 0.00 69 1010.8
20260505011531 69 184 0.0 1.0 0.00 0.00 0.00 69 1010.5
20260505011029 70 139 1.0 3.0 0.00 0.00 0.00 69 1010.3
20260505010524 70 164 0.0 0.0 0.00 0.00 0.00 69 1010.6
20260505010021 70 166 0.0 0.0 0.00 0.00 0.00 68 1010.9
20260505005517 70 147 0.0 0.0 0.00 0.00 0.00 68 1010.6
20260505005015 70 121 0.0 1.0 0.00 0.00 0.00 68 1010.7
20260505004512 71 159 0.0 0.0 0.00 0.00 0.00 68 1010.6
20260505004008 71 157 0.0 0.0 0.00 0.00 0.00 67 1010.6
20260505003506 71 147 1.0 2.0 0.00 0.00 0.00 66 1010.6
20260505003002 71 151 1.0 1.0 0.00 0.00 0.00 67 1010.5
20260505002458 71 167 1.0 1.0 0.00 0.00 0.00 67 1010.6
20260505001956 71 154 1.0 2.0 0.00 0.00 0.00 67 1010.7
20260505001454 71 161 1.0 1.0 0.00 0.00 0.00 68 1010.6
20260505000950 71 137 4.0 5.0 0.00 0.00 0.00 66 1010.8
20260505000448 71 188 1.0 2.0 0.00 0.00 0.00 65 1010.8
20260504235945 71 115 1.0 1.0 0.00 0.00 0.00 68 1010.9
20260504235442 70 137 1.0 1.0 0.00 0.00 0.00 68 1010.8
20260504234939 70 137 1.0 1.0 0.00 0.00 0.00 68 1010.9
20260504234436 71 136 4.0 5.0 0.00 0.00 0.00 65 1010.9
20260504233932 71 136 4.0 5.0 0.00 0.00 0.00 65 1011.0
20260504233428 71 167 1.0 1.0 0.00 0.00 0.00 68 1011.0
20260504232925 71 162 0.0 0.0 0.00 0.00 0.00 67 1011.3
20260504232422 72 164 1.0 1.0 0.00 0.00 0.00 66 1011.2
20260504231919 72 164 1.0 1.0 0.00 0.00 0.00 66 1011.3
20260504231415 71 167 0.0 0.0 0.00 0.00 0.00 66 1011.1
20260504230912 71 150 4.0 5.0 0.00 0.00 0.00 64 1011.1
20260504230409 71 150 4.0 5.0 0.00 0.00 0.00 64 1011.3
20260504225908 71 150 4.0 5.0 0.00 0.00 0.00 64 1011.4
20260504225404 72 139 2.0 2.0 0.00 0.00 0.00 64 1011.6
20260504224902 72 171 0.0 1.0 0.00 0.00 0.00 64 1011.5
20260504224358 72 137 1.0 2.0 0.00 0.00 0.00 65 1011.4
20260504223855 72 190 2.0 2.0 0.00 0.00 0.00 60 1011.7
20260504223350 71 195 4.0 5.0 0.00 0.00 0.00 63 1011.6
20260504222847 71 203 4.0 6.0 0.00 0.00 0.00 63 1011.8
20260504222344 71 148 3.0 3.0 0.00 0.00 0.00 62 1011.9
20260504221843 73 181 2.0 2.0 0.00 0.00 0.00 61 1011.8
20260504221339 75 150 5.0 6.0 0.00 0.00 0.00 58 1011.9
20260504220836 73 170 0.0 0.0 0.00 0.00 0.00 63 1011.9
20260504220333 73 165 0.0 1.0 0.00 0.00 0.00 61 1012.0
20260504215830 73 215 2.0 3.0 0.00 0.00 0.00 59 1012.0
20260504215326 73 138 1.0 2.0 0.00 0.00 0.00 61 1012.2
20260504214822 71 153 0.0 1.0 0.00 0.00 0.00 63 1012.2
20260504214320 71 196 1.0 1.0 0.00 0.00 0.00 63 1012.4
20260504213816 71 158 0.0 1.0 0.00 0.00 0.00 64 1012.3
20260504213312 72 157 2.0 2.0 0.00 0.00 0.00 64 1012.3
20260504212810 70 185 1.0 1.0 0.00 0.00 0.00 68 1012.4
20260504212306 69 136 2.0 2.0 0.00 0.00 0.00 65 1012.4
20260504211804 69 161 2.0 2.0 0.00 0.00 0.00 65 1012.6
20260504211259 69 174 1.0 2.0 0.00 0.00 0.00 66 1012.5
20260504210757 68 163 0.0 1.0 0.00 0.00 0.00 67 1012.7
20260504210254 67 169 0.0 0.0 0.00 0.00 0.00 69 1012.8
20260504205751 67 161 0.0 1.0 0.00 0.00 0.00 70 1012.7
20260504205249 67 170 2.0 5.0 0.00 0.00 0.00 69 1012.9
20260504204747 68 149 3.0 5.0 0.00 0.00 0.00 67 1012.7
20260504204245 67 199 2.0 3.0 0.00 0.00 0.00 67 1013.1
20260504203744 68 163 3.0 3.0 0.00 0.00 0.00 68 1013.1
20260504203241 67 164 1.0 2.0 0.00 0.00 0.00 69 1012.8
20260504202741 66 161 2.0 2.0 0.00 0.00 0.00 69 1013.1
20260504202238 66 177 1.0 2.0 0.00 0.00 0.00 73 1013.1
20260504201735 66 143 2.0 2.0 0.00 0.00 0.00 71 1013.1
20260504201232 65 150 1.0 2.0 0.00 0.00 0.00 70 1012.9
20260504200730 66 118 2.0 3.0 0.00 0.00 0.00 71 1013.0
20260504200226 66 159 3.0 3.0 0.00 0.00 0.00 70 1013.3
20260504195722 65 176 1.0 2.0 0.00 0.00 0.00 73 1013.3
20260504195218 65 154 0.0 1.0 0.00 0.00 0.00 71 1013.2
20260504194716 64 164 0.0 1.0 0.00 0.00 0.00 74 1013.2
20260504194212 63 177 2.0 3.0 0.00 0.00 0.00 74 1013.5
20260504193708 65 160 3.0 3.0 0.00 0.00 0.00 71 1013.2
20260504193206 65 196 2.0 3.0 0.00 0.00 0.00 71 1013.1
20260504192704 65 148 1.0 1.0 0.00 0.00 0.00 71 1013.3
20260504192201 64 167 1.0 2.0 0.00 0.00 0.00 74 1013.4
20260504191700 63 161 1.0 2.0 0.00 0.00 0.00 75 1013.4
20260504191156 62 178 1.0 2.0 0.00 0.00 0.00 77 1013.6
20260504190652 61 135 1.0 1.0 0.00 0.00 0.00 79 1013.7
20260504190149 61 164 1.0 1.0 0.00 0.00 0.00 78 1013.7
20260504185645 61 163 0.0 0.0 0.00 0.00 0.00 80 1013.6
20260504185142 60 174 2.0 2.0 0.00 0.00 0.00 79 1013.8
20260504184638 60 147 3.0 6.0 0.00 0.00 0.00 79 1013.9
20260504184133 61 168 1.0 2.0 0.00 0.00 0.00 78 1014.0
20260504183630 62 171 1.0 2.0 0.00 0.00 0.00 77 1013.8
20260504183128 61 158 0.0 1.0 0.00 0.00 0.00 78 1013.6
20260504182625 60 199 1.0 2.0 0.00 0.00 0.00 79 1013.5
20260504182122 60 154 2.0 3.0 0.00 0.00 0.00 79 1013.6
20260504181620 59 139 0.0 1.0 0.00 0.00 0.00 82 1013.8
20260504181117 59 128 1.0 2.0 0.00 0.00 0.00 81 1013.6
20260504180617 58 106 1.0 2.0 0.00 0.00 0.00 82 1013.7
20260504180115 58 159 2.0 2.0 0.00 0.00 0.00 83 1013.7
20260504175611 58 148 3.0 3.0 0.00 0.00 0.00 82 1013.9
20260504175108 58 173 1.0 1.0 0.00 0.00 0.00 83 1013.6
20260504174606 58 138 2.0 2.0 0.00 0.00 0.00 83 1013.5
20260504174102 58 180 1.0 1.0 0.00 0.00 0.00 83 1013.7
20260504173559 58 154 2.0 3.0 0.00 0.00 0.00 82 1013.6
20260504173057 59 219 2.0 2.0 0.00 0.00 0.00 81 1013.7
20260504172553 58 128 1.0 2.0 0.00 0.00 0.00 82 1013.4
20260504172050 58 139 1.0 2.0 0.00 0.00 0.00 82 1013.8
20260504171546 58 169 1.0 2.0 0.00 0.00 0.00 83 1013.5
20260504171044 58 163 1.0 2.0 0.00 0.00 0.00 83 1013.6
20260504170539 58 156 1.0 1.0 0.00 0.00 0.00 83 1013.7